Regional Weather Roundup
Issued by NWS

Home | Current Version | Previous Version | Text Only | Print | Product List | Glossary On
Versions: 1 2 3 4 5 6 7 8 9 10 11 12 13 14 15 16 17 18 19 20 21 22 23 24 25 26 27 28 29 30 31 32 33 34 35 36 37 38 39 40 41 42 43 44 45 46 47 48 49 50
000
ASCA44 KEWX 261520
RWRMX

LATIN AMERICA AND CARIBBEAN REGIONAL WEATHER ROUNDUP
NATIONAL WEATHER SERVICE AUSTIN/SAN ANTONIO TX
1000 AM CDT THU APR 26 2018

NOTE: "FAIR" INDICATED FEW OR NO CLOUDS BELOW 12,000 FEET WITH NO
SIGNIFICANT WEATHER AND/OR OBSTRUCTIONS TO VISIBILITY.

BAJA CALIFORNIA

CITY           SKY/WX    TMP DP  RH WIND       PRES   REMARKS
LORETO         PTSUNNY   86  63  45 CALM      29.85R
LA PAZ         SUNNY     73  59  60 S8        29.91R
MEXICALI       CLOUDY    72  36  26 S2        29.86R
S.J. DEL CABO  SUNNY     77  36  22 CALM      29.91R
TIJUANA        CLOUDY    57  52  82 NW6       30.06R

NORTHWESTERN MEXICO

CITY           SKY/WX    TMP DP  RH WIND       PRES   REMARKS
CULIACAN       SUNNY     77  55  47 CALM      29.89R
DURANGO        SUNNY     66  32  28 SW3       30.25R
GUAYMAS        PTSUNNY   82  48  30 CALM      29.83R
HERMOSILLO     PTSUNNY   81  39  22 CALM      29.92R
CD. JUAREZ     MOSUNNY   59  39  47 CALM      30.10S
LOS MOCHIS     MOSUNNY   72  59  64 CALM      29.88
OBREGON        PTSUNNY   75  37  25 CALM      29.84R

NORTHEASTERN MEXICO

CITY           SKY/WX    TMP DP  RH WIND       PRES   REMARKS
CHIHUAHUA      MOSUNNY   66  36  32 CALM      30.14R
MATAMOROS      PTSUNNY   72  66  83 N10       30.03R
MONCLOVA       PTSUNNY   63  52  67 E6        30.09F
MONTERREY      CLOUDY    63  54  72 NW6       30.09R
NUEVO LAREDO   CLOUDY    63  55  77 NE9       30.10S
PIEDRAS NEGRAS MOSUNNY   64  50  59 SE6       30.09F
REYNOSA        CLOUDY    66  61  82 N7        30.06R
SALTILLO       PTSUNNY   61  55  82 CALM      30.21S FOG
TORREON        SUNNY     72  57  60 CALM      30.11R
CD. VICTORIA   CLOUDY    66  66 100 N9        30.07R

WESTERN MEXICO

CITY           SKY/WX    TMP DP  RH WIND       PRES   REMARKS
AGUASCALIENTES SUNNY     70  39  32 E5        30.26R
COLIMA         SUNNY     79  46  31 CALM      30.03R
DEL BAJIO      SUNNY     72  50  46 SE6       30.29R
GUADALAJARA    SUNNY     73  19  13 CALM      30.19R
MANZANILLO     SUNNY     79  73  83 CALM      29.91R
MAZATLAN       SUNNY     73  61  64 SE3       29.91R
P. VALLARTA    SUNNY     75  45  33 N6        29.90S
URUAPAN        SUNNY     68  52  56 CALM      30.19S
ZACATECAS      MOSUNNY   63  46  55 CALM      30.28

CENTRAL MEXICO

CITY           SKY/WX    TMP DP  RH WIND       PRES   REMARKS
CUERNAVACA     MOSUNNY   77  57  50 CALM      30.14S
MEXICO CITY    MOSUNNY   63  52  67 E6        30.35R HAZE
MORELIA        SUNNY     68  46  45 CALM      30.25R
POZA RICA      LGT RAIN  72  72 100 N5        30.03R FOG
PUEBLA         MOSUNNY   63  52  67 NW5       30.34S HAZE
QUERETARO      MOSUNNY   66  55  68 SE9       30.32R FOG
S. LUIS POTOSI CLOUDY    64  52  63 SE6       30.25R
TAMPICO        MOSUNNY   77  70  78 MISG      30.02R
TOLUCA         SUNNY     59  46  63 CALM      30.40R

SOUTHERN MEXICO

CITY           SKY/WX    TMP DP  RH WIND       PRES   REMARKS
ACAPULCO       SUNNY     84  64  51 CALM      29.91R
B. DE HUATULCO   N/A    N/A N/A N/A MISG        N/A
OAXACA         CLOUDY    64  55  72 CALM      30.27R
P. ESCONDIDO   MOSUNNY   82  72  69 CALM      30.02R
VERACRUZ       LGT RAIN  73  72  94 W3        29.96S
ZIHUATANEJO    SUNNY     81  59  47 CALM      29.91R

YUCATAN PENINSULA

CITY           SKY/WX    TMP DP  RH WIND       PRES   REMARKS
CAMPECHE       SUNNY     82  75  78 SE6       29.88F
CANCUN         PTSUNNY   82  73  74 CALM      29.95R
CHETUMAL       MOSUNNY   84  73  70 SE12      29.93R HX  91
CD. DEL CARMEN MOSUNNY   84  75  74 S6        29.91R HX  92
COZUMEL        MOSUNNY   86  72  62 S5        29.92S HX  92
MERIDA         SUNNY     82  70  65 S5        29.92F
MINATITLAN     RAIN      81  79  94 CALM      29.92R
TAPACHULA      MOSUNNY   86  73  66 CALM      29.91R HX  93
TUX. GUTIERREZ PTSUNNY   82  70  65 N2        29.99R
VILLAHERMOSA   CLOUDY    82  77  83 W6        29.95R HX  91

CENTRAL AMERICA

CITY           SKY/WX    TMP DP  RH WIND       PRES   REMARKS
BELIZE CITY    MOSUNNY   86  75  70 SE5       29.92S HX  95
MANAGUA        MOSUNNY   84  70  61 E9        29.89S

CARIBBEAN

CITY           SKY/WX    TMP DP  RH WIND       PRES   REMARKS
ARUBA          MOSUNNY   88  77  70 E21       29.92R HX 100
CURACAO        PTSUNNY   84  72  65 E16       29.94S
KINGSTON       MOSUNNY   86  77  74 SE18      29.94S HX  97
NASSAU         MOSUNNY   82  72  69 E3        29.99R
SAN JUAN       PTSUNNY   82  75  78 E12       30.01F
SANTO DOMINGO  MOSUNNY   84  73  70 E9        29.97S HX  91
ST. KITTS      MOSUNNY   84  72  65 E15       30.03S
ST. THOMAS     SUNNY     81  77  89 SE16      30.03

$$




USA.gov is the U.S. government's official web portal to all federal, state and local government web resources and services.